| time (UTC) | temp F | wind direction | speed MPH | gust MPH | rain 1hr in | rain 24hr in | rain mn in | humidity % | barometer mb |
| 20260831031538 | 80 | 176 | 2.0 | 6.0 | 0.00 | 0.07 | 0.07 | 36 | 1020.6 |
| 20260831030037 | 82 | 271 | 1.0 | 8.0 | 0.00 | 0.07 | 0.07 | 34 | 1020.0 |
| 20260831024537 | 82 | 268 | 2.0 | 8.0 | 0.00 | 0.07 | 0.07 | 34 | 1019.9 |
| 20260831023035 | 83 | 287 | 5.0 | 14.0 | 0.00 | 0.07 | 0.07 | 31 | 1019.7 |
| 20260831021544 | 84 | 280 | 0.0 | 2.0 | 0.00 | 0.07 | 0.07 | 31 | 1020.1 |
| 20260831020028 | 84 | 160 | 0.0 | 14.0 | 0.00 | 0.07 | 0.07 | 31 | 1019.9 |
| 20260831014523 | 80 | 131 | 5.0 | 14.0 | 0.00 | 0.07 | 0.07 | 37 | 1019.4 |
| 20260831013018 | 82 | 140 | 11.0 | 19.0 | 0.00 | 0.07 | 0.07 | 35 | 1019.4 |
| 20260831011533 | 82 | 121 | 14.0 | 21.0 | 0.00 | 0.07 | 0.07 | 36 | 1018.9 |
| 20260831010009 | 83 | 117 | 1.0 | 7.0 | 0.07 | 0.07 | 0.07 | 47 | 1018.9 |
| 20260831004506 | 80 | 121 | 0.0 | 8.0 | 0.07 | 0.07 | 0.07 | 61 | 1018.8 |
| 20260831003005 | 69 | 84 | 7.0 | 17.0 | 0.07 | 0.07 | 0.07 | 1 | 1019.0 |
| 20260831001556 | 69 | 83 | 15.0 | 22.0 | 0.07 | 0.07 | 0.07 | 29 | 1019.1 |
| 20260830234550 | 96 | 178 | 0.0 | 8.0 | 0.00 | 0.00 | 0.00 | 17 | 1018.4 |
| 20260830233006 | 96 | 272 | 0.0 | 10.0 | 0.00 | 0.00 | 0.00 | 17 | 1018.4 |
| 20260830231552 | 96 | 195 | 2.0 | 11.0 | 0.00 | 0.00 | 0.00 | 18 | 1018.6 |
| 20260830224543 | 96 | 270 | 0.0 | 4.0 | 0.00 | 0.00 | 0.00 | 17 | 1018.7 |
| 20260830223019 | 95 | 358 | 0.0 | 8.0 | 0.00 | 0.00 | 0.00 | 18 | 1018.8 |
| 20260830221556 | 96 | 222 | 4.0 | 18.0 | 0.00 | 0.00 | 0.00 | 17 | 1018.8 |
| 20260830214552 | 95 | 295 | 0.0 | 7.0 | 0.00 | 0.00 | 0.00 | 18 | 1019.3 |
| 20260830213014 | 96 | 150 | 3.0 | 10.0 | 0.00 | 0.00 | 0.00 | 17 | 1019.7 |
| 20260830211602 | 95 | 182 | 4.0 | 12.0 | 0.00 | 0.00 | 0.00 | 18 | 1019.8 |
| 20260830204531 | 95 | 194 | 2.0 | 12.0 | 0.00 | 0.00 | 0.00 | 18 | 1020.3 |
| 20260830203111 | 95 | 208 | 3.0 | 11.0 | 0.00 | 0.00 | 0.00 | 17 | 1020.6 |
| 20260830201532 | 94 | 222 | 3.0 | 9.0 | 0.00 | 0.00 | 0.00 | 19 | 1020.9 |
| 20260830200004 | 94 | 190 | 7.0 | 11.0 | 0.00 | 0.00 | 0.00 | 20 | 1021.0 |
| 20260830194502 | 94 | 29 | 0.0 | 7.0 | 0.00 | 0.00 | 0.00 | 20 | 1021.3 |
| 20260830193058 | 93 | 215 | 1.0 | 7.0 | 0.00 | 0.00 | 0.00 | 22 | 1021.5 |
| 20260830191553 | 91 | 204 | 0.0 | 8.0 | 0.00 | 0.00 | 0.00 | 23 | 1021.7 |
| 20260830190051 | 92 | 315 | 2.0 | 6.0 | 0.00 | 0.00 | 0.00 | 23 | 1021.8 |
| 20260830184547 | 91 | 275 | 2.0 | 11.0 | 0.00 | 0.00 | 0.00 | 24 | 1022.0 |
| 20260830183046 | 91 | 198 | 2.0 | 6.0 | 0.00 | 0.00 | 0.00 | 24 | 1022.4 |
| 20260830181540 | 89 | 36 | 1.0 | 7.0 | 0.00 | 0.00 | 0.00 | 26 | 1022.8 |
| 20260830180039 | 88 | 18 | 0.0 | 5.0 | 0.00 | 0.00 | 0.00 | 27 | 1022.9 |
| 20260830174550 | 88 | 204 | 0.0 | 6.0 | 0.00 | 0.00 | 0.00 | 27 | 1023.0 |
| 20260830173034 | 87 | 358 | 2.0 | 6.0 | 0.00 | 0.00 | 0.00 | 28 | 1023.3 |
| 20260830171525 | 86 | 278 | 1.0 | 7.0 | 0.00 | 0.00 | 0.00 | 28 | 1023.4 |
| 20260830170020 | 86 | 232 | 0.0 | 8.0 | 0.00 | 0.00 | 0.00 | 29 | 1023.6 |
| 20260830164522 | 85 | 292 | 0.0 | 10.0 | 0.00 | 0.00 | 0.00 | 30 | 1023.8 |
| 20260830163014 | 84 | 328 | 0.0 | 4.0 | 0.00 | 0.00 | 0.00 | 30 | 1023.8 |
| 20260830161506 | 83 | 274 | 1.0 | 8.0 | 0.00 | 0.00 | 0.00 | 32 | 1023.9 |
| 20260830160003 | 82 | 132 | 0.0 | 0.0 | 0.00 | 0.00 | 0.00 | 35 | 1024.0 |
| 20260830154600 | 81 | 12 | 0.0 | 0.0 | 0.00 | 0.00 | 0.00 | 36 | 1024.1 |
| 20260830153100 | 78 | 62 | 0.0 | 1.0 | 0.00 | 0.00 | 0.00 | 40 | 1024.2 |
| 20260830151558 | 77 | 20 | 0.0 | 4.0 | 0.00 | 0.00 | 0.00 | 41 | 1024.3 |
| 20260830150052 | 76 | 29 | 1.0 | 5.0 | 0.00 | 0.00 | 0.00 | 43 | 1024.3 |
| 20260830144551 | 74 | 21 | 0.0 | 6.0 | 0.00 | 0.00 | 0.00 | 45 | 1024.1 |
| 20260830143050 | 73 | 19 | 0.0 | 4.0 | 0.00 | 0.00 | 0.00 | 47 | 1024.1 |
| 20260830141550 | 71 | 29 | 0.0 | 4.0 | 0.00 | 0.00 | 0.00 | 51 | 1024.0 |
| 20260830140148 | 69 | 15 | 0.0 | 2.0 | 0.00 | 0.00 | 0.00 | 54 | 1024.1 |
| 20260830134548 | 68 | 10 | 0.0 | 0.0 | 0.00 | 0.00 | 0.00 | 55 | 1023.9 |
| 20260830133049 | 65 | 12 | 0.0 | 0.0 | 0.00 | 0.00 | 0.00 | 60 | 1023.8 |
| 20260830131547 | 65 | 178 | 0.0 | 0.0 | 0.00 | 0.00 | 0.00 | 58 | 1023.8 |
| 20260830130053 | 64 | 178 | 0.0 | 0.0 | 0.00 | 0.00 | 0.00 | 59 | 1023.6 |
| 20260830124544 | 64 | 104 | 0.0 | 0.0 | 0.00 | 0.00 | 0.00 | 60 | 1023.4 |
| 20260830123042 | 64 | 88 | 0.0 | 0.0 | 0.00 | 0.00 | 0.00 | 60 | 1023.4 |
| 20260830121539 | 64 | 84 | 0.0 | 0.0 | 0.00 | 0.00 | 0.00 | 60 | 1023.5 |
| 20260830120038 | 63 | 88 | 0.0 | 0.0 | 0.00 | 0.00 | 0.00 | 61 | 1023.4 |
| 20260830114537 | 62 | 81 | 0.0 | 0.0 | 0.00 | 0.00 | 0.00 | 63 | 1023.4 |
| 20260830113038 | 63 | 87 | 0.0 | 0.0 | 0.00 | 0.00 | 0.00 | 61 | 1023.4 |
| 20260830111531 | 63 | 87 | 0.0 | 0.0 | 0.00 | 0.00 | 0.00 | 61 | 1023.2 |
| 20260830110039 | 64 | 346 | 0.0 | 0.0 | 0.00 | 0.00 | 0.00 | 57 | 1023.2 |
| 20260830104533 | 66 | 131 | 0.0 | 0.0 | 0.00 | 0.00 | 0.00 | 54 | 1023.3 |
| 20260830103020 | 68 | 133 | 0.0 | 0.0 | 0.00 | 0.00 | 0.00 | 52 | 1023.2 |
| 20260830101520 | 68 | 136 | 0.0 | 0.0 | 0.00 | 0.00 | 0.00 | 52 | 1023.3 |
| 20260830100015 | 68 | 110 | 0.0 | 0.0 | 0.00 | 0.00 | 0.00 | 51 | 1023.2 |
| 20260830094517 | 69 | 129 | 0.0 | 0.0 | 0.00 | 0.00 | 0.00 | 51 | 1023.1 |
| 20260830093010 | 69 | 125 | 0.0 | 0.0 | 0.00 | 0.00 | 0.00 | 50 | 1023.2 |
| 20260830091510 | 69 | 109 | 0.0 | 0.0 | 0.00 | 0.00 | 0.00 | 49 | 1023.1 |
| 20260830090002 | 71 | 143 | 0.0 | 0.0 | 0.00 | 0.00 | 0.00 | 47 | 1023.1 |
| 20260830084558 | 72 | 134 | 0.0 | 0.0 | 0.00 | 0.00 | 0.00 | 45 | 1023.0 |
| 20260830083059 | 72 | 94 | 0.0 | 0.0 | 0.00 | 0.00 | 0.00 | 45 | 1023.1 |
| 20260830081558 | 73 | 22 | 0.0 | 0.0 | 0.00 | 0.00 | 0.00 | 45 | 1023.1 |
| 20260830080053 | 73 | 45 | 0.0 | 0.0 | 0.00 | 0.00 | 0.00 | 43 | 1023.2 |
| 20260830074547 | 74 | 36 | 0.0 | 0.0 | 0.00 | 0.00 | 0.00 | 42 | 1023.1 |
| 20260830073047 | 76 | 26 | 0.0 | 0.0 | 0.00 | 0.00 | 0.00 | 40 | 1023.1 |
| 20260830071556 | 77 | 66 | 0.0 | 0.0 | 0.00 | 0.00 | 0.00 | 38 | 1023.2 |
| 20260830070038 | 77 | 43 | 0.0 | 6.0 | 0.00 | 0.00 | 0.00 | 39 | 1023.1 |
| 20260830064536 | 76 | 136 | 0.0 | 0.0 | 0.00 | 0.00 | 0.00 | 40 | 1022.8 |
| 20260830063036 | 77 | 116 | 1.0 | 5.0 | 0.00 | 0.00 | 0.00 | 40 | 1022.4 |
| 20260830061530 | 77 | 113 | 1.0 | 6.0 | 0.00 | 0.00 | 0.00 | 38 | 1022.3 |
| 20260830060025 | 79 | 90 | 0.0 | 8.0 | 0.00 | 0.00 | 0.00 | 36 | 1022.1 |
| 20260830054535 | 79 | 84 | 6.0 | 13.0 | 0.00 | 0.00 | 0.00 | 36 | 1022.0 |
| 20260830053024 | 79 | 89 | 6.0 | 10.0 | 0.00 | 0.00 | 0.00 | 37 | 1021.9 |
| 20260830051523 | 79 | 99 | 3.0 | 7.0 | 0.00 | 0.00 | 0.00 | 38 | 1021.8 |
| 20260830050032 | 79 | 123 | 3.0 | 10.0 | 0.00 | 0.00 | 0.00 | 37 | 1022.0 |
| 20260830044526 | 79 | 131 | 5.0 | 10.0 | 0.00 | 0.00 | 0.00 | 37 | 1021.9 |
| 20260830043022 | 77 | 109 | 0.0 | 7.0 | 0.00 | 0.00 | 0.00 | 40 | 1021.9 |
| 20260830041547 | 78 | 95 | 0.0 | 4.0 | 0.00 | 0.00 | 0.00 | 38 | 1022.0 |
| 20260830040020 | 79 | 108 | 0.0 | 0.0 | 0.00 | 0.00 | 0.00 | 34 | 1021.8 |
| 20260830034520 | 79 | 135 | 0.0 | 1.0 | 0.00 | 0.00 | 0.00 | 35 | 1021.7 |